This is the latest recevied weather packets stored in our database for station/object OH2EGI-2. If no packets are shown the sender has not sent any weather packets the latest 10 day(s).
| Time | Temp. | Humidity | Pressure | Rain* | Wind** | Luminosity | Snow |
|---|---|---|---|---|---|---|---|
| 1777965096 | 16.67° C | 50% | 992.9 hPa | 0 mm | - | - | - |
| 1777964796 | 16.67° C | 50% | 992.8 hPa | 0 mm | - | - | - |
| 1777964496 | 16.67° C | 49% | 992.8 hPa | 0 mm | - | - | - |
| 1777964196 | 17.22° C | 49% | 992.8 hPa | 0 mm | - | - | - |
| 1777963896 | 17.78° C | 49% | 992.8 hPa | 0 mm | - | - | - |
| 1777963597 | 17.78° C | 50% | 992.8 hPa | 0 mm | - | - | - |
| 1777963297 | 17.78° C | 53% | 992.6 hPa | 0 mm | - | - | - |
| 1777962997 | 17.78° C | 52% | 992.5 hPa | 0 mm | - | - | - |
| 1777962697 | 17.78° C | 54% | 992.5 hPa | 0 mm | - | - | - |
| 1777962397 | 17.78° C | 56% | 992.5 hPa | 0 mm | - | - | - |
| 1777962097 | 17.22° C | 57% | 992.5 hPa | 0 mm | - | - | - |
| 1777961797 | 17.22° C | 57% | 992.5 hPa | 0 mm | - | - | - |
| 1777961497 | 16.67° C | 60% | 992.5 hPa | 0 mm | - | - | - |
| 1777961197 | 16.11° C | 59% | 992.5 hPa | 0 mm | - | - | - |
| 1777960897 | 16.11° C | 62% | 992.6 hPa | 0 mm | - | - | - |
| 1777960597 | 16.11° C | 62% | 992.7 hPa | 0 mm | - | - | - |
| 1777960297 | 16.11° C | 66% | 992.7 hPa | 0 mm | - | - | - |
| 1777959997 | 15.56° C | 68% | 992.7 hPa | 0 mm | - | - | - |
| 1777959697 | 15° C | 71% | 992.8 hPa | 0 mm | - | - | - |
| 1777959397 | 14.44° C | 75% | 992.8 hPa | 0 mm | - | - | - |
| 1777959097 | 13.33° C | 76% | 992.8 hPa | 0 mm | - | - | - |
| 1777958797 | 11.67° C | 68% | 992.8 hPa | 0 mm | - | - | - |
| 1777958497 | 10° C | 59% | 992.9 hPa | 0 mm | - | - | - |
| 1777958197 | 8.33° C | 64% | 992.9 hPa | 0 mm | - | - | - |
| 1777957897 | 7.78° C | 62% | 992.9 hPa | 0 mm | - | - | - |
* Rain latest hour (hover to see other rain measurements)
** Current wind speed in m/s (hover to see current wind gust speed)